Flag for Andorra Weather past 2 weeks in Andorra La Vella, Andorra

Now
66 °F

Scattered clouds.


Feels Like: 66 °F
Forecast: 47 / 72 °F
Wind: 13 mph from Northwest

Location: Carcassonne Airport

Current Time: Aug 23, 2014 at 11:30:11 AM

Latest Report: Aug 23, 2014 at 11:00 AM


Visibility: N/A

Pressure: 30.12 "Hg

Humidity: 64%

Dew point: 54 °F

Location of Andorra La VellaLocation

Historic Weather in Andorra La Vella — Graph

°F

Andorra La Vella temperature yesterday

Maximum temperature yesterday: 72 °F (at 1:00 PM)
Minimum temperature yesterday: 55 °F (at 6:00 AM)
Average temperature yesterday: 63 °F

Past Weeks' High & Low Weather Summary

 TemperatureHumidityPressure
High84 °F (Aug 8, 12:30 PM)100% (Aug 8, 11:30 PM)30.24 "Hg (Aug 8, 11:30 PM)
Low52 °F (Aug 17, 6:30 AM)32% (Aug 17, 4:30 PM)29.77 "Hg (Aug 8, 8:30 PM)
Average68 °F73%30.01 "Hg
* Reported Aug 8 10:00 AM — Aug 23 10:30 AM, Andorra La Vella, Weather by CustomWeather, © 2014

Note: Actual official high and low records may vary slightly from our data, if they occured in-between our weather recording intervals... More about our weather records

Advertising

Andorra La Vella weather history for previous 24 hours

 ConditionsComfort  
Time TempWeatherWind HumidityBarometerVisibility
10:30 AM
Aug 23
64 °FOvercast.13 mph68%30.12 "HgN/A
10:00 AM63 °FOvercast.12 mph73%30.12 "HgN/A
9:30 AM63 °FMore clouds than sun.12 mph73%30.12 "HgN/A
9:00 AM61 °FOvercast.10 mph77%30.12 "HgN/A
8:30 AM61 °FMore clouds than sun.9 mph77%30.09 "HgN/A
8:00 AM61 °FMostly cloudy.8 mph77%30.09 "HgN/A
7:30 AM61 °FMostly cloudy.8 mph77%30.09 "HgN/A
7:00 AM61 °FMostly cloudy.10 mph77%30.09 "HgN/A
6:30 AM61 °FOvercast.9 mph77%30.09 "HgN/A
6:00 AM61 °FOvercast.9 mph77%30.09 "HgN/A
5:30 AM61 °FMostly cloudy.12 mph77%30.09 "HgN/A
5:00 AM61 °FOvercast.9 mph83%30.09 "HgN/A
4:30 AM61 °FOvercast.9 mph83%30.09 "HgN/A
4:00 AM61 °FMostly cloudy.9 mph83%30.09 "HgN/A
3:30 AM61 °FMostly cloudy.10 mph83%30.09 "HgN/A
3:00 AM61 °FMostly cloudy.10 mph83%30.09 "HgN/A
2:30 AM61 °FOvercast.13 mph88%30.09 "HgN/A
2:00 AM61 °FMostly cloudy.12 mph88%30.09 "HgN/A
1:30 AM61 °FMostly cloudy.15 mph88%30.09 "HgN/A
1:00 AM61 °FMostly cloudy.15 mph83%30.07 "HgN/A
12:30 AM61 °FMostly cloudy.14 mph83%30.07 "HgN/A
12:00 AM63 °FOvercast.13 mph77%30.07 "HgN/A
11:30 PM
Aug 22
63 °FMostly cloudy.10 mph83%30.07 "HgN/A
11:00 PM63 °FMostly cloudy.9 mph88%30.07 "HgN/A
10:30 PM63 °FOvercast.9 mph88%30.07 "HgN/A
10:00 PM64 °FOvercast.9 mph83%30.07 "HgN/A
9:30 PM64 °FOvercast.9 mph83%30.07 "HgN/A
9:00 PM64 °FOvercast.9 mph83%30.04 "HgN/A
8:30 PM64 °FOvercast.8 mph83%30.04 "HgN/A
8:00 PM64 °FOvercast.9 mph83%30.04 "HgN/A
7:30 PM64 °FLight rain. Overcast.9 mph83%30.04 "HgN/A
7:00 PM66 °FOvercast.12 mph78%30.04 "HgN/A
6:30 PM66 °FOvercast.12 mph78%30.04 "HgN/A
6:00 PM68 °FOvercast.13 mph73%30.04 "HgN/A
5:30 PM68 °FBroken clouds.12 mph73%30.04 "HgN/A
5:00 PM68 °FBroken clouds.7 mph73%30.04 "HgN/A
4:30 PM68 °FBroken clouds.8 mph69%30.04 "HgN/A
4:00 PM68 °FPartly sunny.10 mph73%30.04 "HgN/A
3:30 PM68 °FLight rain. Broken clouds.6 mph78%30.01 "HgN/A
3:00 PM66 °FLight rain. More clouds than sun.7 mph83%30.04 "HgN/A
2:30 PM70 °FLight rain. Broken clouds.5 mph64%30.04 "HgN/A
2:00 PM72 °FPartly sunny.7 mph57%30.04 "HgN/A
1:30 PM72 °FMild.5 mph57%30.04 "HgN/A
1:00 PM72 °FClear.3 mph57%30.04 "HgN/A
12:30 PM70 °FClear.5 mph64%30.04 "HgN/A
12:00 PM68 °FClear.5 mph64%30.04 "HgN/A
11:30 AM68 °FClear.6 mph64%30.04 "HgN/A
11:00 AM68 °FClear.7 mph64%30.04 "HgN/A
Weather by CustomWeather, © 2014

See weather overviewHow to use our weather pages